Kahului, HI

4:11 PM HST on January 22, 2018 (GMT -1000)
Kahului

Weather History for PHOG - February, 2011

Change the Weather History Date:

Sunday, February 6, 2011

  Actual Average Record
Temperature  
Mean Temperature 73 °F 72 °F  
Max Temperature 81 °F 81 °F 88 °F (1996)
Min Temperature 64 °F 63 °F 53 °F (1973)
Degree Days  
Heating Degree Days 0 0  
Month to date heating degree days 0 0  
Since 1 July heating degree days 0 0  
Cooling Degree Days 8 7  
Month to date cooling degree days 38 42  
Year to date cooling degree days 245 259  
Growing Degree Days 22 (Base 50)    
Moisture  
Dew Point 65 °F    
Average Humidity 76    
Maximum Humidity 93    
Minimum Humidity 58    
Precipitation  
Precipitation 0.14 in 0.07 in 1.34 in (1976)
Month to date precipitation 0.14 0.45  
Year to date precipitation 4.45 3.32  
Snow  
Snow 0.00 in - - ()
Month to date snowfall 0.0  
Since 1 July snowfall 0.0  
Snow Depth 0.00 in    
Sea Level Pressure  
Sea Level Pressure 29.99 in    
Wind  
Wind Speed 9 mph (South)    
Max Wind Speed 23 mph    
Max Gust Speed 30 mph    
Visibility 10 miles    
Events Rain    
T = Trace of Precipitation, MM = Missing Value Source: NWS Daily Summary

Daily Weather History Graph

Daily Weather History Graph

Search for Another Location

Airport or City:

Trip Planner

Search our weather history database for the weather conditions in past years. The results will help you decide how hot, cold, wet, or windy it might be!

Date:

Astronomy

Feb. 06, 2011 Rise Set
Actual Time 7:00 AM HST 6:19 PM HST
Civil Twilight 6:37 AM HST 6:42 PM HST
Nautical Twilight 6:11 AM HST 7:08 PM HST
Astronomical Twilight 5:44 AM HST 7:34 PM HST
Moon 8:58 AM HST (2/6) 9:34 PM HST (2/6)
Length of Visible Light 12h 04m
Length of Day
11h 18m
Waxing Crescent, 13% of the Moon is Illuminated
Feb 6
Waxing Crescent
Feb 10
First Quarter
Feb 17
Full
Feb 24
Last Quarter
Mar 4
New

Hourly Weather History & Observations

Time (HST) Temp. Heat Index Dew Point Humidity Pressure Visibility Wind Dir Wind Speed Gust Speed Precip Events Conditions
12:54 AM 68.0 °F - 61.0 °F 78% 29.99 in 10.0 mi South 3.5 mph - N/A   Partly Cloudy
1:54 AM 66.9 °F - 61.0 °F 81% 29.99 in 10.0 mi Calm Calm - N/A   Clear
2:54 AM 68.0 °F - 62.1 °F 81% 29.98 in 10.0 mi Calm Calm - N/A   Clear
3:54 AM 64.9 °F - 60.1 °F 84% 29.97 in 10.0 mi SSW 3.5 mph - N/A   Clear
4:54 AM 66.0 °F - 62.1 °F 87% 29.94 in 10.0 mi SE 5.8 mph - N/A   Clear
5:54 AM 64.9 °F - 62.1 °F 90% 29.95 in 9.0 mi SSW 3.5 mph - N/A   Scattered Clouds
6:54 AM 66.0 °F - 63.0 °F 90% 29.96 in 10.0 mi SE 3.5 mph - N/A   Partly Cloudy
7:54 AM 69.1 °F - 63.0 °F 81% 29.99 in 10.0 mi SE 6.9 mph - N/A   Scattered Clouds
8:54 AM 75.0 °F - 64.0 °F 69% 30.01 in 10.0 mi Variable 3.5 mph - N/A   Scattered Clouds
9:54 AM 79.0 °F - 64.0 °F 60% 30.02 in 10.0 mi SSW 13.8 mph - N/A   Scattered Clouds
10:54 AM 81.0 °F 82.5 °F 64.0 °F 56% 30.02 in 10.0 mi SSW 17.3 mph 21.9 mph N/A   Scattered Clouds
11:54 AM 80.1 °F 81.9 °F 64.9 °F 60% 29.99 in 10.0 mi SSW 20.7 mph - N/A   Scattered Clouds
12:54 PM 80.1 °F 82.1 °F 66.0 °F 62% 29.99 in 10.0 mi SSW 17.3 mph - N/A   Mostly Cloudy
1:54 PM 79.0 °F - 66.9 °F 66% 29.95 in 10.0 mi South 18.4 mph 25.3 mph 0.00 in   Scattered Clouds
2:54 PM 75.0 °F - 69.1 °F 82% 29.96 in 8.0 mi SSW 18.4 mph 23.0 mph 0.05 in Rain Rain
3:54 PM 75.0 °F - 68.0 °F 79% 29.95 in 10.0 mi SSW 15.0 mph - 0.09 in   Scattered Clouds
4:54 PM 75.0 °F - 66.9 °F 76% 29.96 in 10.0 mi SSW 16.1 mph - N/A   Scattered Clouds
5:54 PM 73.9 °F - 68.0 °F 82% 29.97 in 10.0 mi SSW 12.7 mph - N/A   Scattered Clouds
6:54 PM 73.9 °F - 68.0 °F 82% 29.99 in 10.0 mi SSW 11.5 mph - N/A   Clear
7:54 PM 73.0 °F - 68.0 °F 84% 30.02 in 10.0 mi SSW 10.4 mph - N/A   Clear
8:54 PM 73.0 °F - 68.0 °F 84% 30.04 in 10.0 mi SSW 9.2 mph - N/A   Clear
9:54 PM 73.0 °F - 68.0 °F 84% 30.05 in 10.0 mi South 9.2 mph - N/A   Clear
10:54 PM 72.0 °F - 66.9 °F 84% 30.04 in 10.0 mi South 8.1 mph - N/A   Clear
11:54 PM 71.1 °F - 66.0 °F 84% 30.04 in 10.0 mi South 8.1 mph - N/A   Clear